Time,TemperatureF,DewpointF,PressureIn,WindDirection,WindDirectionDegrees,WindSpeedMPH,WindSpeedGustMPH,Humidity,HourlyPrecipIn,Conditions,Clouds,dailyrainin,SolarRadiationWatts/m^2,SoftwareType,DateUTC
2013-07-11 00:01:00,65.0,33.0,-100.00,WNW,286,0.0,5.0,30,0.00,,,0.00,0.000000,,2013-07-11 07:01:00,
2013-07-11 00:12:00,65.0,33.0,-100.00,WNW,286,0.0,5.0,30,0.00,,,0.00,0.000000,,2013-07-11 07:12:00,
2013-07-11 00:22:00,65.0,33.0,-100.00,WNW,286,0.0,5.0,30,0.00,,,0.00,0.000000,,2013-07-11 07:22:00,
2013-07-11 00:32:00,65.0,33.0,-100.00,WNW,286,0.0,5.0,30,0.00,,,0.00,0.000000,,2013-07-11 07:32:00,
2013-07-11 01:02:00,66.0,38.0,-100.00,West,275,0.0,5.0,35,0.00,,,-99.99,0.000000,,2013-07-11 08:02:00,
2013-07-11 01:11:00,66.0,38.0,-100.00,West,275,0.0,5.0,35,0.00,,,-99.99,0.000000,,2013-07-11 08:11:00,
2013-07-11 01:22:00,66.0,38.0,-100.00,West,275,0.0,5.0,35,0.00,,,-99.99,0.000000,,2013-07-11 08:22:00,
2013-07-11 01:33:00,66.0,38.0,-100.00,West,275,0.0,5.0,35,0.00,,,-99.99,0.000000,,2013-07-11 08:33:00,
2013-07-11 02:02:00,64.0,39.0,-100.00,West,273,0.0,5.0,39,0.00,,,0.00,0.000000,,2013-07-11 09:02:00,
2013-07-11 02:12:00,64.0,39.0,-100.00,West,273,0.0,5.0,39,0.00,,,0.00,0.000000,,2013-07-11 09:12:00,
2013-07-11 02:21:00,64.0,39.0,-100.00,West,273,0.0,5.0,39,0.00,,,0.00,0.000000,,2013-07-11 09:21:00,
2013-07-11 02:33:00,64.0,39.0,-100.00,West,273,0.0,5.0,39,0.00,,,0.00,0.000000,,2013-07-11 09:33:00,
2013-07-11 03:01:00,65.0,35.0,-100.00,WSW,256,0.0,3.0,33,0.00,,,0.00,0.000000,,2013-07-11 10:01:00,
2013-07-11 03:11:00,65.0,35.0,-100.00,WSW,256,0.0,3.0,33,0.00,,,0.00,0.000000,,2013-07-11 10:11:00,
2013-07-11 03:21:00,65.0,35.0,-100.00,WSW,256,0.0,3.0,33,0.00,,,0.00,0.000000,,2013-07-11 10:21:00,
2013-07-11 03:33:00,65.0,35.0,-100.00,WSW,256,0.0,3.0,33,0.00,,,0.00,0.000000,,2013-07-11 10:33:00,
2013-07-11 04:02:00,64.0,34.0,-100.00,East,89,0.0,4.0,33,0.00,,,0.00,0.000000,,2013-07-11 11:02:00,
2013-07-11 04:12:00,64.0,34.0,-100.00,East,89,0.0,4.0,33,0.00,,,0.00,0.000000,,2013-07-11 11:12:00,
2013-07-11 04:22:00,64.0,34.0,-100.00,East,89,0.0,4.0,33,0.00,,,0.00,0.000000,,2013-07-11 11:22:00,
2013-07-11 04:32:00,64.0,34.0,-100.00,East,89,0.0,4.0,33,0.00,,,0.00,0.000000,,2013-07-11 11:32:00,
2013-07-11 05:01:00,63.0,35.0,-100.00,ENE,69,0.0,0.0,35,0.00,,,-99.99,0.000000,,2013-07-11 12:01:00,
2013-07-11 05:12:00,63.0,35.0,-100.00,ENE,69,0.0,0.0,35,0.00,,,-99.99,0.000000,,2013-07-11 12:12:00,
2013-07-11 05:22:00,63.0,35.0,-100.00,ENE,69,0.0,0.0,35,0.00,,,-99.99,0.000000,,2013-07-11 12:22:00,
2013-07-11 05:33:00,63.0,35.0,-100.00,ENE,69,0.0,0.0,35,0.00,,,-99.99,0.000000,,2013-07-11 12:33:00,
2013-07-11 06:02:00,59.0,38.0,-100.00,NW,304,0.0,3.0,46,0.00,,,-99.99,0.000000,,2013-07-11 13:02:00,
2013-07-11 06:12:00,59.0,38.0,-100.00,NW,304,0.0,3.0,46,0.00,,,-99.99,0.000000,,2013-07-11 13:12:00,
2013-07-11 06:22:00,59.0,38.0,-100.00,NW,304,0.0,3.0,46,0.00,,,-99.99,0.000000,,2013-07-11 13:22:00,
2013-07-11 06:33:00,59.0,38.0,-100.00,NW,304,0.0,3.0,46,0.00,,,-99.99,0.000000,,2013-07-11 13:33:00,
2013-07-11 07:04:00,61.0,43.0,-100.00,North,353,0.0,5.0,52,0.00,,,0.00,4.000000,,2013-07-11 14:04:00,
2013-07-11 07:13:00,61.0,43.0,-100.00,North,353,0.0,5.0,52,0.00,,,0.00,4.000000,,2013-07-11 14:13:00,
2013-07-11 07:22:00,61.0,43.0,-100.00,North,353,0.0,5.0,52,0.00,,,0.00,4.000000,,2013-07-11 14:22:00,
2013-07-11 07:34:00,61.0,43.0,-100.00,North,353,0.0,5.0,52,0.00,,,0.00,4.000000,,2013-07-11 14:34:00,
2013-07-11 08:04:00,63.0,44.0,-100.00,ESE,111,0.0,0.0,50,0.00,,,0.00,36.000000,,2013-07-11 15:04:00,
2013-07-11 08:12:00,63.0,44.0,-100.00,ESE,111,0.0,0.0,50,0.00,,,0.00,36.000000,,2013-07-11 15:12:00,
2013-07-11 08:23:00,63.0,44.0,-100.00,ESE,111,0.0,0.0,50,0.00,,,0.00,36.000000,,2013-07-11 15:23:00,
2013-07-11 08:34:00,63.0,44.0,-100.00,ESE,111,0.0,0.0,50,0.00,,,0.00,36.000000,,2013-07-11 15:34:00,
2013-07-11 09:04:00,64.0,41.0,-100.00,NE,53,0.0,0.0,43,0.00,,,0.00,62.000000,,2013-07-11 16:04:00,
2013-07-11 09:13:00,64.0,41.0,-100.00,NE,53,0.0,0.0,43,0.00,,,0.00,62.000000,,2013-07-11 16:13:00,
2013-07-11 09:22:00,64.0,41.0,-100.00,NE,53,0.0,0.0,43,0.00,,,0.00,62.000000,,2013-07-11 16:22:00,
2013-07-11 10:02:00,64.0,42.0,-100.00,SSE,161,0.0,2.0,44,0.00,,,0.00,86.000000,,2013-07-11 17:02:00,
2013-07-11 10:13:00,64.0,42.0,-100.00,SSE,161,0.0,2.0,44,0.00,,,0.00,86.000000,,2013-07-11 17:13:00,
2013-07-11 10:34:00,64.0,42.0,-100.00,SSE,161,0.0,2.0,44,0.00,,,0.00,86.000000,,2013-07-11 17:34:00,
2013-07-11 11:03:00,66.0,45.0,-100.00,WNW,301,0.0,4.0,46,0.00,,,0.00,114.000000,,2013-07-11 18:03:00,
2013-07-11 11:13:00,66.0,45.0,-100.00,WNW,301,0.0,4.0,46,0.00,,,0.00,114.000000,,2013-07-11 18:13:00,
2013-07-11 11:22:00,66.0,45.0,-100.00,WNW,301,0.0,4.0,46,0.00,,,0.00,114.000000,,2013-07-11 18:22:00,
2013-07-11 11:33:00,66.0,45.0,-100.00,WNW,301,0.0,4.0,46,0.00,,,0.00,114.000000,,2013-07-11 18:33:00,
2013-07-11 12:03:00,69.0,43.0,-100.00,NNW,347,0.0,4.0,39,0.00,,,0.00,356.000000,,2013-07-11 19:03:00,
2013-07-11 12:12:00,69.0,43.0,-100.00,NNW,347,0.0,4.0,39,0.00,,,0.00,356.000000,,2013-07-11 19:12:00,
2013-07-11 12:22:00,69.0,43.0,-100.00,NNW,347,0.0,4.0,39,0.00,,,0.00,356.000000,,2013-07-11 19:22:00,
2013-07-11 12:34:00,69.0,43.0,-100.00,NNW,347,0.0,4.0,39,0.00,,,0.00,356.000000,,2013-07-11 19:34:00,
2013-07-11 13:03:00,71.0,44.0,-100.00,West,264,2.0,9.0,38,0.00,,,0.00,436.000000,,2013-07-11 20:03:00,
2013-07-11 13:12:00,71.0,44.0,-100.00,West,264,2.0,9.0,38,0.00,,,0.00,436.000000,,2013-07-11 20:12:00,
2013-07-11 13:23:00,71.0,44.0,-100.00,West,264,2.0,9.0,38,0.00,,,0.00,436.000000,,2013-07-11 20:23:00,
2013-07-11 13:34:00,71.0,44.0,-100.00,West,264,2.0,9.0,38,0.00,,,0.00,436.000000,,2013-07-11 20:34:00,
2013-07-11 14:03:00,70.0,45.0,-100.00,NE,43,1.0,8.0,40,0.00,,,0.00,311.000000,,2013-07-11 21:03:00,
2013-07-11 14:13:00,70.0,45.0,-100.00,NE,43,1.0,8.0,40,0.00,,,0.00,311.000000,,2013-07-11 21:13:00,
2013-07-11 14:22:00,70.0,45.0,-100.00,NE,43,1.0,8.0,40,0.00,,,0.00,311.000000,,2013-07-11 21:22:00,
2013-07-11 14:33:00,70.0,45.0,-100.00,NE,43,1.0,8.0,40,0.00,,,0.00,311.000000,,2013-07-11 21:33:00,
2013-07-11 15:04:00,68.0,46.0,-100.00,WSW,256,0.0,5.0,46,0.00,,,0.00,138.000000,,2013-07-11 22:04:00,
2013-07-11 15:13:00,68.0,46.0,-100.00,WSW,256,0.0,5.0,46,0.00,,,0.00,138.000000,,2013-07-11 22:13:00,
2013-07-11 15:22:00,68.0,46.0,-100.00,WSW,256,0.0,5.0,46,0.00,,,0.00,138.000000,,2013-07-11 22:22:00,
2013-07-11 15:32:00,68.0,46.0,-100.00,WSW,256,0.0,5.0,46,0.00,,,0.00,138.000000,,2013-07-11 22:32:00,
2013-07-11 16:03:00,66.0,45.0,-100.00,SW,235,0.0,4.0,46,0.00,,,0.00,130.000000,,2013-07-11 23:03:00,
2013-07-11 16:23:00,66.0,45.0,-100.00,SW,235,0.0,4.0,46,0.00,,,0.00,130.000000,,2013-07-11 23:23:00,
2013-07-11 16:33:00,66.0,45.0,-100.00,SW,235,0.0,4.0,46,0.00,,,0.00,130.000000,,2013-07-11 23:33:00,
2013-07-11 17:03:00,69.0,44.0,-100.00,SW,217,0.0,4.0,40,0.00,,,0.00,230.000000,,2013-07-12 00:03:00,
2013-07-11 17:12:00,69.0,44.0,-100.00,SW,217,0.0,4.0,40,0.00,,,0.00,230.000000,,2013-07-12 00:12:00,
2013-07-11 17:23:00,69.0,44.0,-100.00,SW,217,0.0,4.0,40,0.00,,,0.00,230.000000,,2013-07-12 00:23:00,
2013-07-11 17:34:00,69.0,44.0,-100.00,SW,217,0.0,4.0,40,0.00,,,0.00,230.000000,,2013-07-12 00:34:00,
2013-07-11 18:02:00,68.0,45.0,-100.00,SW,223,1.0,7.0,44,0.00,,,0.00,214.000000,,2013-07-12 01:02:00,
2013-07-11 18:12:00,68.0,45.0,-100.00,SW,223,1.0,7.0,44,0.00,,,0.00,214.000000,,2013-07-12 01:12:00,
2013-07-11 18:23:00,68.0,45.0,-100.00,SW,223,1.0,7.0,44,0.00,,,0.00,214.000000,,2013-07-12 01:23:00,
2013-07-11 19:14:00,68.0,49.0,-100.00,WNW,282,0.0,5.0,51,0.00,,,0.00,119.000000,,2013-07-12 02:14:00,
2013-07-11 19:24:00,68.0,49.0,-100.00,WNW,282,0.0,5.0,51,0.00,,,0.00,119.000000,,2013-07-12 02:24:00,
2013-07-11 19:34:00,68.0,49.0,-100.00,WNW,282,0.0,5.0,51,0.00,,,0.00,119.000000,,2013-07-12 02:34:00,
2013-07-11 20:02:00,64.0,43.0,-100.00,WSW,245,0.0,3.0,47,0.00,,,0.00,69.000000,,2013-07-12 03:02:00,
2013-07-11 20:13:00,64.0,43.0,-100.00,WSW,245,0.0,3.0,47,0.00,,,0.00,69.000000,,2013-07-12 03:13:00,
2013-07-11 20:23:00,64.0,43.0,-100.00,WSW,245,0.0,3.0,47,0.00,,,0.00,69.000000,,2013-07-12 03:23:00,
2013-07-11 20:33:00,64.0,43.0,-100.00,WSW,245,0.0,3.0,47,0.00,,,0.00,69.000000,,2013-07-12 03:33:00,
2013-07-11 21:01:00,59.0,44.0,-100.00,NNW,329,0.0,4.0,58,0.00,,,0.00,4.000000,,2013-07-12 04:01:00,
2013-07-11 21:11:00,59.0,44.0,-100.00,NNW,329,0.0,4.0,58,0.00,,,0.00,4.000000,,2013-07-12 04:11:00,
2013-07-11 21:21:00,59.0,44.0,-100.00,NNW,329,0.0,4.0,58,0.00,,,0.00,4.000000,,2013-07-12 04:21:00,
2013-07-11 21:32:00,59.0,44.0,-100.00,NNW,329,0.0,4.0,58,0.00,,,0.00,4.000000,,2013-07-12 04:32:00,
2013-07-11 22:02:00,57.0,44.0,-100.00,NNW,345,0.0,0.0,62,0.00,,,0.00,0.000000,,2013-07-12 05:02:00,
2013-07-11 22:11:00,57.0,44.0,-100.00,NNW,345,0.0,0.0,62,0.00,,,0.00,0.000000,,2013-07-12 05:11:00,
2013-07-11 22:22:00,57.0,44.0,-100.00,NNW,345,0.0,0.0,62,0.00,,,0.00,0.000000,,2013-07-12 05:22:00,
2013-07-11 22:32:00,57.0,44.0,-100.00,NNW,345,0.0,0.0,62,0.00,,,0.00,0.000000,,2013-07-12 05:32:00,
2013-07-11 23:01:00,58.0,45.0,-100.00,NW,324,0.0,0.0,61,0.00,,,0.00,0.000000,,2013-07-12 06:01:00,
2013-07-11 23:11:00,58.0,45.0,-100.00,NW,324,0.0,0.0,61,0.00,,,0.00,0.000000,,2013-07-12 06:11:00,
2013-07-11 23:22:00,58.0,45.0,-100.00,NW,324,0.0,0.0,61,0.00,,,0.00,0.000000,,2013-07-12 06:22:00,
2013-07-11 23:32:00,58.0,45.0,-100.00,NW,324,0.0,0.0,61,0.00,,,0.00,0.000000,,2013-07-12 06:32:00,